Location: �terpigny
(49.8910°N, 2.9249°E)
Time: 11:14:43
(UTC+00:00)

Cosmos 614 Rocket - Visible Passes

Search period start: 29 May 2022 00:00
Search period end: 08 June 2022 00:00
Orbit: 732 x 763 km, 74.1° (Epoch: 29 May)

Date Brightness Start Highest point End Pass type
(mag) Time Alt. Az. Time Alt. Az. Time Alt. Az.
29 May 3.9 01:28:36 10° NNW 01:33:49 79° WSW 01:38:46 11° SSE visible
29 May 6.6 23:05:16 10° N 23:07:56 14° NE 23:10:36 10° ENE visible
30 May 4.4 00:45:32 10° NNW 00:50:42 61° ENE 00:55:43 11° SE visible
30 May 5.3 02:27:56 10° NW 02:31:54 22° W 02:35:29 12° SW visible
31 May 5.3 00:02:37 10° N 00:07:25 36° NE 00:12:14 10° ESE visible
31 May 4.6 01:44:16 10° NW 01:49:06 39° WSW 01:52:33 18° SSW visible
31 May 6.0 23:19:53 10° N 23:23:59 23° NE 23:28:06 10° E visible
01 Jun 3.9 01:00:58 10° NNW 01:06:10 71° WSW 01:09:40 21° S visible
01 Jun 6.0 02:45:39 10° WNW 02:46:48 11° W 02:47:58 10° WSW visible
01 Jun 6.5 22:37:25 10° N 22:40:24 15° NE 22:43:22 10° ENE visible
02 Jun 4.2 00:17:52 10° NNW 00:23:04 67° ENE 00:26:52 19° SE visible
02 Jun 5.5 02:00:27 10° NW 02:04:11 20° W 02:06:40 15° SW visible
02 Jun 5.1 23:34:55 10° NNW 23:39:50 40° ENE 23:44:06 13° ESE visible
03 Jun 4.7 01:16:42 10° NW 01:21:25 35° WSW 01:23:55 23° SSW visible
03 Jun 5.8 22:52:09 10° N 22:56:25 25° NE 23:00:42 10° ESE visible
04 Jun 4.0 00:33:20 10° NNW 00:38:30 63° WSW 00:41:14 28° S visible
04 Jun 6.3 22:09:37 10° N 22:12:52 16° NE 22:16:07 10° E visible
04 Jun 4.1 23:50:12 10° NNW 23:55:26 75° ENE 23:58:35 25° SSE visible
05 Jun 5.6 01:33:01 10° NW 01:36:27 18° W 01:38:24 15° WSW visible
05 Jun 6.6 21:27:49 10° NNE 21:29:08 11° NE 21:30:27 10° NE visible
05 Jun 4.9 23:07:13 10° NNW 23:12:13 44° ENE 23:15:59 17° SE visible
06 Jun 4.9 00:49:07 10° NW 00:53:43 32° WSW 00:55:47 24° SW visible
06 Jun 5.6 22:24:24 10° N 22:28:51 27° NE 22:33:16 10° ESE visible
07 Jun 4.2 00:05:43 10° NNW 00:10:50 56° WSW 00:13:13 30° S visible
07 Jun 6.2 21:41:48 10° N 21:45:19 18° NE 21:48:49 10° E visible
07 Jun 4.0 23:22:32 10° NNW 23:27:47 83° ENE 23:30:40 27° SSE visible
